Simultaneous Nadir Overpasses (SNOs) Predictions

Prediction of SNOs between AQUA and METOP-A Satellite Orbit:

Table of predicted SNOs for the next 14.0 days since TLE Epoch: 6/21/2019
Index Date (AQUA) Time (AQUA) Lat,Lon (AQUA) SZA (AQUA ) Date (METOP-A) Time (METOP-A) Lat,Lon (METOP-A) SZA (METOP-A ) Distance(km) Time Diff (sec)
1 06/22/2019 02:32:34 -75.21, -47.12 128.08 06/22/2019 02:31:33 -75.20, -47.11 128.08 0.91 61
2 06/22/2019 03:22:02 75.26, 120.38 51.98 06/22/2019 03:22:12 75.26, 120.39 51.97 0.36 10
3 06/22/2019 04:11:36 -75.65, -73.09 127.59 06/22/2019 04:12:45 -75.66, -71.08 127.69 55.26 69
4 06/24/2019 22:06:49 -75.20, 19.31 128.04 06/24/2019 22:05:57 -75.20, 19.25 128.03 1.99 52
5 06/24/2019 22:56:17 75.26,-173.21 52.03 06/24/2019 22:56:36 75.25,-173.26 52.02 2.06 19
6 06/27/2019 17:41:04 -75.21, 85.74 127.94 06/27/2019 17:40:20 -75.24, 85.74 127.90 3.72 44
7 06/27/2019 18:30:32 75.27,-106.80 52.14 06/27/2019 18:30:59 75.29,-106.78 52.15 2.23 27
8 06/30/2019 13:15:18 -75.22, 152.16 127.78 06/30/2019 13:14:43 -75.24, 152.09 127.75 3.10 35
9 06/30/2019 14:04:46 75.29, -40.40 52.31 06/30/2019 14:05:22 75.29, -40.44 52.30 1.14 36
10 07/03/2019 08:49:33 -75.23,-141.43 127.56 07/03/2019 08:49:07 -75.23,-141.56 127.54 3.71 26
11 07/03/2019 09:39:01 75.30, 26.00 52.53 07/03/2019 09:39:45 75.32, 26.04 52.54 2.64 44




NCC Satellite Simultaneous Nadir Overpasses (SNOs) Prediction Service
